Regional Weather Roundup
Issued by NWS

Home | Current Version | Previous Version | Graphics & Text | Print | Product List | Glossary On
Versions: 1 2 3 4 5 6 7 8 9 10 11 12 13 14 15 16 17 18 19 20 21 22 23 24 25 26 27 28 29 30 31 32 33 34 35 36 37 38 39 40 41 42 43 44 45 46 47 48 49 50
000
ASUS45 KABQ 060201
RWRNM
NEW MEXICO REGIONAL WEATHER ROUNDUP
NATIONAL WEATHER SERVICE ALBUQUERQUE NM
800 PM MDT SUN JUL 05 2015

NOTE: "FAIR" MEANS FEW OR NO CLOUDS BELOW 12,000 FEET AGL WITH NO
       SIGNIFICANT WEATHER OR OBSTRUCTIONS TO VISION.

      THIS PRODUCT IS RELEASED AS TWO VERSIONS.  ONE VERSION NEAR
      THE TOP OF THE HOUR CONTAINING PRELIMINARY DATA FROM ALBUQUERQUE
      AND OTHER STATIONS.  A FINAL VERSION WITH ADDITIONAL DATA IS
      ISSUED ABOUT 10 MINUTES AFTER THE HOUR.

NMZ501-503-504-510>518-060300-
NORTHWEST PLATEAU/NORTHCENTRAL MOUNTAINS

CITY           SKY/WX    TMP DP  RH WIND       PRES   REMARKS
FARMINGTON     CLEAR     80  48  32 NW6       30.05R
SANTA FE       CLOUDY    70  54  56 NW22G30   30.15R
TAOS           MOCLDY    75  45  33 SW18      30.16R

$$
NMZ402-403-502-505>509-060300-
WESTCENTRAL MOUNTAINS/SOUTHWEST MOUNTAINS

CITY           SKY/WX    TMP DP  RH WIND       PRES   REMARKS
GALLUP         LGT RAIN  71  53  52 SW14G25   30.20R
SILVER CITY    LGT RAIN  72  61  68 NW14      30.15R

$$
NMZ407-409-411-412-060300-
SOUTHERN DESERTS

CITY           SKY/WX    TMP DP  RH WIND       PRES   REMARKS
DEMING         PTCLDY    80  60  50 NW18      30.04R
HOLLOMAN AFB   PTCLDY    84  57  39 W13       29.97R
ALAMOGORDO     MOCLDY    82  57  42 N8        29.98R
T OR C         MOCLDY    77  62  59 N9        30.05R

$$
NMZ519>523-060300-
CENTRAL VALLEYS/CENTRAL HIGHLANDS

CITY           SKY/WX    TMP DP  RH WIND       PRES   REMARKS
ALBUQUERQUE    CLOUDY    72  57  59 W8        30.11R
DOUBLE EAGLE   MOCLDY    68  57  68 W14       30.14S
CLINES CORNERS MOCLDY    69  52  54 W9        30.18R
BELEN          FAIR      73  58  59 NW13      30.10R
SOCORRO        NOT AVBL

$$
NMZ524>526-539-540-060300-
SOUTHCENTRAL MOUNTAINS

CITY           SKY/WX    TMP DP  RH WIND       PRES   REMARKS
RUIDOSO        NOT AVBL

$$
NMZ527>531-060300-
NORTHEAST HIGHLANDS/NORTHEAST PLAINS

CITY           SKY/WX    TMP DP  RH WIND       PRES   REMARKS
LAS VEGAS      MOCLDY    68  54  60 SE10      30.14S
RATON          MOCLDY    73  57  57 SW7       30.05R
CLAYTON        PTCLDY    85  52  32 S13       29.96R

$$
NMZ532>537-060300-
EASTCENTRAL PLAINS

CITY           SKY/WX    TMP DP  RH WIND       PRES   REMARKS
TUCUMCARI      PTCLDY    88  55  32 S13       29.91R
CANNON AFB     MOCLDY    81  59  47 S10       29.97S
CLOVIS AIRPORT MOCLDY    82  55  39 SE9         N/A

$$
NMZ028-029-538-060300-
SOUTHEAST PLAINS

CITY           SKY/WX    TMP DP  RH WIND       PRES   REMARKS
ROSWELL        MOCLDY    85  58  39 SW7       29.92R
ARTESIA        CLOUDY    88  61  40 SW9       29.94R
CARLSBAD       CLOUDY    87  61  41 W8        29.91R
HOBBS          MOCLDY    84  63  48 S16G25    29.97R


$$



USA.gov is the U.S. government's official web portal to all federal, state and local government web resources and services.